Wind_Speed
7 7 6 6 6 6 6 6 7 7 7 7 7 7 7 7 7 8 8 9 9 9 9 9 9 9 10 10 10 10 10 9 9 9 8 8 8 8 8 8 8 8 8 8
8 8 8 7 7 7 7 7 7 7 8 8 8 8 8 8 9 9 9 10 10 10 10 10 10 10 10 11 11 10 10 9 9 9 9 8 9 9 9 8 8 8 9 9
10 9 9 8 8 8 8 8 8 9 9 9 9 9 10 10 10 10 10 11 11 11 12 12 12 11 11 11 11 10 10 10 10 9 9 9 9 9 9 9 9 9 10 9
9 10 10 9 9 9 9 9 9 10 10 10 10 11 11 11 11 11 11 11 11 12 12 13 13 12 12 12 12 12 12 11 11 10 10 9 9 9 9 9 9 9 9 9
9 10 10 10 9 9 9 10 10 10 10 11 11 11 12 12 12 13 13 13 13 13 13 14 14 13 13 13 13 13 13 13 12 11 11 10 10 10 10 9 9 9 9 9
9 10 10 10 10 10 10 10 11 11 11 11 11 12 12 13 13 14 14 15 14 14 15 15 15 15 15 15 15 14 14 14 13 12 12 11 11 11 11 11 10 9 9 9
10 10 10 10 11 10 10 11 11 11 12 12 12 13 13 14 14 14 15 15 16 16 16 16 16 16 16 16 16 16 15 15 15 14 14 13 13 13 12 12 11 11 11 10
11 11 11 11 11 12 12 12 12 13 13 14 14 15 15 15 15 15 16 16 17 17 17 17 17 17 17 17 17 17 17 16 16 16 15 15 15 14 14 14 13 13 13 12
12 13 13 12 13 13 13 13 14 15 15 15 16 16 16 17 16 16 17 17 17 17 17 18 18 18 18 18 18 18 18 17 17 17 16 16 16 16 15 15 15 15 14 14
13 14 14 14 14 14 14 15 15 16 17 17 17 17 16 17 18 18 18 18 18 18 18 18 18 19 19 19 19 19 19 19 18 18 18 17 17 17 17 16 16 16 16 15
14 15 15 15 15 15 16 16 17 17 18 17 17 17 17 17 18 18 18 18 18 18 18 18 19 19 20 20 20 20 20 20 19 19 19 18 19 19 19 19 18 18 18 17
15 15 16 17 17 17 17 18 18 18 19 19 19 18 17 18 19 19 19 19 19 19 19 19 20 20 20 21 21 22 22 22 21 20 20 20 20 21 21 20 19 19 19 19
16 16 17 18 18 19 19 19 19 20 20 20 20 20 19 19 20 21 21 21 21 21 21 21 21 21 21 22 22 22 22 23 23 21 21 21 21 22 22 21 21 20 20 20
17 18 18 19 20 20 20 20 21 21 22 22 22 22 21 21 22 22 22 22 21 22 22 22 22 22 22 22 22 23 23 23 23 22 22 22 22 22 23 22 22 22 21 21
18 19 19 20 21 21 21 21 22 22 23 24 23 23 22 23 23 23 23 23 23 23 23 23 23 23 22 22 22 23 22 22 22 22 22 22 23 23 23 22 22 22 22 22
20 20 21 22 22 22 22 23 23 24 24 24 25 24 23 23 24 23 23 24 24 24 24 24 24 24 23 22 22 22 22 22 22 21 22 22 22 22 22 22 22 22 22 23
21 22 22 22 22 23 23 22 23 24 24 25 26 25 25 24 24 24 24 24 25 25 24 24 24 24 23 23 23 23 22 23 23 23 23 23 22 22 22 22 21 21 21 22
22 23 23 22 23 23 23 23 23 24 24 25 26 26 26 26 25 25 25 25 25 25 24 24 24 24 24 24 24 24 23 23 24 24 24 23 23 22 21 21 22 21 21 21
22 22 22 23 24 24 23 23 23 24 25 25 26 26 26 26 26 25 25 25 25 25 25 24 24 24 24 24 24 24 23 24 24 24 24 23 23 22 22 21 21 21 21 21
22 23 23 24 25 25 25 24 24 25 25 24 25 25 25 25 26 25 25 26 26 25 25 24 24 24 24 24 24 24 24 24 24 24 25 24 24 23 24 23 22 22 21 21
24 24 25 26 26 26 26 24 24 25 25 24 24 25 24 24 25 25 24 25 25 25 25 25 24 24 25 25 24 24 24 24 24 24 25 26 25 24 24 24 23 23 23 23
25 26 26 26 27 26 26 26 25 25 25 25 25 24 24 24 24 24 24 24 24 24 25 25 24 25 25 25 24 24 24 24 24 25 25 26 26 25 25 25 24 24 24 25
25 26 26 27 27 27 27 26 26 26 26 25 24 24 24 25 25 24 25 25 25 24 24 24 24 24 25 24 23 24 24 24 24 24 25 25 26 25 25 25 25 25 25 25
26 26 27 27 26 27 27 26 25 25 25 24 24 24 24 25 24 24 25 25 25 24 24 24 24 24 24 23 23 24 24 24 24 24 26 26 26 26 26 26 26 26 26 26
26 26 27 27 27 27 26 26 26 25 25 25 25 25 26 25 24 24 24 24 24 24 24 24 25 24 23 23 23 24 24 24 24 25 26 27 27 27 27 27 27 27 27 27
26 27 28 27 27 28 27 27 26 26 26 26 26 26 26 25 25 25 24 24 23 23 24 24 24 24 24 24 24 24 24 24 24 25 26 27 27 27 27 27 27 27 27 27
Wind_Direction
267 269 274 274 272 274 275 276 276 276 275 274 273 275 278 282 282 283 283 282 279 279 278 280 281 282 284 285 286 288 290 291 291 292 290 288 291 286 281 278 279 275 271 275
263 264 267 268 270 272 275 276 276 275 276 274 275 277 280 283 283 284 283 280 277 279 277 277 279 280 283 286 286 284 287 288 290 288 287 287 287 288 285 281 282 278 275 275
262 264 264 265 268 270 273 274 274 275 274 274 275 276 280 281 281 283 284 281 274 273 274 275 278 280 284 286 284 282 286 289 290 289 287 286 284 285 284 282 280 278 278 274
262 264 264 265 268 271 273 274 274 275 274 274 274 275 279 279 279 280 282 282 277 274 273 274 276 279 282 284 282 282 283 285 287 287 285 284 283 283 285 282 278 275 274 274
263 265 264 265 269 271 274 276 277 278 277 276 276 276 277 277 277 279 280 281 278 274 274 274 274 276 279 281 282 280 280 280 280 281 280 279 279 281 282 281 278 277 272 268
265 266 266 267 270 272 274 277 278 279 279 277 277 275 276 278 279 279 278 278 277 275 273 273 273 274 277 279 280 279 277 276 275 275 276 276 276 278 280 279 275 273 271 269
268 269 267 268 270 272 275 278 281 282 281 281 279 276 277 279 279 278 277 276 275 275 272 272 272 272 274 275 276 276 274 271 271 271 272 272 272 273 274 277 275 272 269 269
268 271 271 269 271 273 276 277 277 277 278 280 279 279 280 281 279 278 278 277 275 275 274 272 272 272 273 273 273 273 272 269 269 269 268 268 268 270 271 271 273 271 269 269
269 271 274 273 275 274 273 274 277 276 276 279 281 281 280 281 280 279 278 278 277 275 274 273 273 273 274 273 273 272 270 269 268 267 265 264 265 267 270 269 268 267 268 267
269 272 274 275 275 275 275 276 277 277 279 280 282 283 285 283 281 281 279 278 276 276 275 275 274 274 274 274 273 271 269 270 269 266 265 264 264 265 266 267 265 264 266 267
269 270 272 274 274 276 277 278 279 280 282 282 283 284 284 284 282 281 279 277 277 276 277 278 277 276 275 275 274 272 270 270 269 267 265 265 265 265 266 266 264 264 266 267
267 270 271 273 273 274 276 278 279 280 282 283 281 283 281 282 282 280 278 277 276 275 276 277 277 277 277 276 275 273 271 269 267 266 267 267 265 265 265 265 264 265 265 266
268 270 272 272 273 273 275 277 279 280 281 281 281 285 284 282 282 281 279 278 275 274 275 277 278 277 277 277 276 273 271 269 267 265 264 265 265 266 266 266 265 264 264 263
269 271 272 273 277 277 278 279 280 281 281 281 281 282 281 279 280 281 281 278 277 276 276 276 277 277 277 276 276 274 271 269 267 266 265 265 265 265 266 266 266 265 264 262
270 272 273 274 275 277 279 280 280 280 281 282 282 280 280 279 280 280 280 279 277 277 277 276 275 276 277 276 275 274 271 268 266 266 268 266 266 266 267 267 267 266 265 263
273 273 274 275 275 277 279 279 279 280 281 281 281 280 280 280 281 281 281 279 276 276 276 277 276 275 276 275 274 274 270 266 266 266 268 268 268 268 267 267 267 268 266 263
275 276 277 277 278 278 278 279 279 280 280 281 281 281 281 281 281 281 281 280 277 275 276 277 277 275 274 275 275 274 268 266 265 265 266 266 268 268 269 268 268 268 267 264
275 277 279 279 280 279 280 279 280 281 282 282 281 280 280 281 281 281 281 280 278 278 278 278 276 275 275 275 274 272 267 265 264 264 264 265 266 268 267 267 268 268 267 265
275 277 279 280 281 282 281 281 282 283 283 284 284 283 281 281 281 280 280 280 278 277 277 277 276 275 275 276 274 271 266 264 263 263 263 263 265 266 266 267 269 269 268 265
275 275 277 281 283 284 284 283 282 283 283 285 286 284 282 281 280 280 279 279 278 277 275 274 275 276 277 277 275 271 267 263 264 263 263 262 263 265 264 266 268 269 268 266
275 276 278 281 282 283 284 285 284 283 286 286 286 285 283 280 280 279 277 276 277 276 275 274 274 274 276 276 274 271 267 265 266 264 264 265 264 266 266 268 267 266 268 267
276 277 278 279 281 283 284 284 284 284 285 285 286 285 283 283 282 279 277 276 275 275 275 274 274 274 275 275 273 270 268 267 266 264 265 265 265 266 266 266 265 266 267 268
276 278 279 280 281 283 283 284 284 284 285 286 286 286 285 284 281 279 280 278 277 276 274 273 274 274 275 274 271 269 268 268 267 266 265 264 265 266 267 267 266 266 267 268
277 277 278 279 281 282 282 282 283 283 283 284 285 285 286 285 283 279 279 280 278 275 274 273 273 273 273 271 271 270 268 267 267 267 265 265 266 267 268 268 267 267 268 269
278 277 276 277 278 279 279 281 282 283 283 283 283 283 284 284 283 281 280 280 278 276 276 276 275 272 270 270 270 271 271 270 269 268 267 267 267 268 268 267 267 268 269 269
277 276 276 276 276 278 279 280 281 281 283 283 283 283 283 283 283 282 280 279 278 275 275 276 273 271 270 271 272 272 271 270 269 269 269 269 269 271 271 270 269 270 270 269
Height
5857 5858 5858 5858 5858 5858 5858 5858 5858 5858 5857 5857 5857 5857 5856 5856 5855 5855 5854 5854 5854 5853 5853 5852 5852 5851 5850 5850 5849 5848 5847 5846 5845 5844 5843 5842 5841 5840 5840 5839 5838 5837 5836 5836
5855 5856 5856 5856 5856 5856 5856 5856 5856 5856 5855 5855 5855 5855 5854 5854 5853 5853 5853 5852 5852 5851 5851 5850 5850 5849 5848 5848 5846 5846 5845 5844 5843 5842 5841 5840 5839 5838 5837 5836 5836 5835 5834 5834
5852 5854 5853 5853 5853 5854 5854 5854 5854 5853 5853 5853 5853 5853 5852 5851 5851 5850 5850 5849 5849 5849 5848 5848 5847 5846 5846 5845 5844 5843 5843 5842 5841 5840 5839 5838 5837 5836 5835 5834 5834 5833 5832 5832
5849 5850 5850 5851 5851 5851 5851 5851 5851 5850 5850 5850 5851 5850 5850 5849 5848 5847 5847 5846 5846 5846 5845 5845 5844 5844 5843 5842 5841 5841 5840 5839 5838 5838 5837 5836 5835 5834 5833 5832 5831 5831 5830 5830
5846 5847 5847 5848 5848 5848 5848 5848 5848 5847 5847 5847 5847 5847 5847 5846 5845 5844 5844 5843 5843 5842 5842 5841 5841 5840 5840 5839 5839 5838 5837 5837 5836 5835 5834 5834 5833 5832 5831 5830 5829 5829 5828 5828
5844 5844 5844 5844 5844 5845 5845 5845 5845 5844 5844 5845 5844 5844 5843 5842 5841 5841 5840 5839 5839 5838 5838 5837 5837 5837 5836 5836 5835 5834 5834 5833 5833 5832 5832 5831 5830 5829 5829 5828 5827 5826 5826 5826
5841 5841 5841 5841 5841 5842 5842 5842 5842 5841 5841 5841 5840 5839 5840 5838 5837 5836 5836 5835 5834 5834 5834 5833 5833 5833 5832 5831 5831 5831 5830 5829 5829 5828 5828 5828 5827 5826 5826 5825 5825 5824 5824 5823
5838 5838 5838 5838 5838 5838 5838 5839 5839 5839 5838 5837 5836 5835 5836 5834 5833 5832 5831 5830 5830 5829 5829 5828 5828 5828 5827 5827 5826 5826 5825 5825 5825 5824 5824 5823 5823 5823 5822 5822 5821 5821 5820 5820
5834 5835 5834 5834 5834 5834 5834 5834 5834 5834 5833 5833 5832 5831 5831 5829 5828 5827 5826 5825 5825 5824 5824 5823 5823 5822 5822 5822 5821 5821 5821 5820 5820 5819 5819 5819 5818 5818 5818 5817 5817 5817 5817 5816
5830 5831 5830 5830 5830 5830 5830 5830 5829 5829 5828 5828 5827 5827 5826 5824 5823 5822 5821 5820 5820 5819 5819 5818 5817 5817 5816 5816 5816 5816 5815 5815 5814 5814 5814 5814 5813 5813 5813 5813 5813 5812 5812 5812
5826 5827 5827 5826 5826 5825 5826 5825 5824 5824 5823 5823 5822 5824 5821 5819 5818 5816 5816 5815 5814 5814 5813 5812 5812 5811 5811 5810 5810 5810 5809 5809 5809 5809 5809 5808 5808 5808 5808 5807 5807 5807 5807 5807
5822 5822 5822 5822 5821 5820 5820 5820 5819 5819 5818 5817 5816 5820 5815 5813 5812 5811 5810 5809 5808 5808 5807 5807 5806 5805 5805 5804 5804 5804 5803 5803 5803 5803 5803 5803 5802 5802 5802 5802 5801 5802 5802 5801
5817 5817 5817 5817 5818 5816 5815 5814 5814 5813 5812 5811 5811 5813 5809 5807 5806 5805 5804 5803 5802 5802 5801 5800 5800 5799 5798 5798 5797 5797 5796 5796 5796 5796 5796 5796 5796 5796 5796 5795 5795 5796 5796 5795
5812 5812 5813 5813 5811 5810 5810 5809 5808 5807 5806 5806 5805 5805 5803 5801 5800 5799 5797 5797 5796 5795 5795 5794 5793 5793 5792 5791 5791 5790 5789 5789 5789 5789 5789 5789 5789 5789 5789 5789 5789 5789 5789 5789
5806 5806 5806 5805 5805 5804 5803 5803 5802 5801 5800 5799 5798 5797 5796 5795 5793 5792 5791 5790 5789 5788 5788 5787 5786 5786 5785 5784 5783 5783 5782 5782 5782 5782 5782 5783 5783 5782 5782 5782 5782 5782 5782 5783
5800 5800 5800 5799 5798 5797 5797 5796 5795 5794 5793 5792 5791 5790 5789 5788 5787 5785 5784 5783 5782 5781 5780 5780 5779 5778 5778 5777 5776 5776 5775 5775 5775 5776 5776 5776 5776 5776 5776 5776 5775 5775 5775 5775
5794 5794 5794 5793 5792 5791 5791 5790 5788 5787 5786 5785 5783 5783 5781 5780 5779 5778 5777 5775 5774 5774 5773 5772 5771 5771 5770 5769 5769 5768 5768 5768 5769 5769 5770 5770 5770 5770 5770 5770 5769 5769 5769 5768
5788 5787 5786 5786 5786 5784 5786 5782 5781 5780 5779 5777 5776 5775 5774 5773 5772 5770 5769 5768 5767 5766 5765 5765 5764 5763 5763 5762 5761 5761 5761 5761 5762 5763 5763 5763 5763 5763 5763 5763 5763 5763 5762 5762
5781 5780 5780 5779 5778 5777 5777 5775 5774 5773 5771 5770 5768 5767 5766 5765 5764 5763 5761 5760 5759 5759 5758 5757 5756 5756 5755 5754 5753 5753 5753 5754 5755 5756 5756 5756 5757 5757 5757 5757 5757 5756 5756 5755
5774 5773 5773 5771 5770 5770 5771 5768 5766 5766 5764 5763 5761 5759 5758 5757 5756 5756 5754 5753 5752 5751 5750 5749 5749 5748 5747 5747 5746 5746 5746 5747 5747 5748 5749 5749 5750 5750 5750 5750 5750 5749 5749 5749
5767 5766 5765 5764 5762 5762 5762 5760 5759 5759 5758 5755 5753 5751 5750 5748 5748 5747 5746 5745 5744 5743 5742 5741 5741 5740 5740 5739 5739 5738 5739 5739 5740 5740 5741 5742 5742 5742 5742 5742 5742 5742 5742 5742
5759 5758 5758 5757 5756 5757 5754 5753 5752 5751 5748 5746 5745 5743 5742 5741 5739 5738 5738 5737 5736 5735 5734 5733 5733 5733 5732 5731 5731 5731 5732 5732 5732 5733 5734 5734 5734 5735 5735 5735 5735 5735 5734 5734
5751 5751 5750 5750 5750 5748 5746 5744 5743 5742 5740 5739 5737 5736 5735 5733 5732 5731 5730 5729 5728 5727 5726 5726 5726 5725 5725 5724 5724 5724 5724 5724 5725 5725 5726 5726 5727 5727 5727 5727 5727 5727 5726 5726
5743 5742 5741 5741 5740 5739 5737 5736 5735 5734 5732 5731 5730 5729 5727 5726 5724 5723 5722 5721 5720 5719 5718 5718 5718 5718 5717 5717 5716 5716 5717 5717 5717 5718 5718 5718 5719 5719 5719 5719 5719 5718 5718 5718
5735 5734 5733 5732 5732 5730 5729 5728 5727 5726 5725 5723 5722 5721 5719 5718 5716 5715 5714 5713 5712 5711 5711 5710 5710 5710 5710 5710 5709 5709 5709 5709 5709 5710 5710 5710 5710 5710 5710 5710 5710 5710 5709 5709
5727 5726 5725 5724 5723 5722 5721 5720 5719 5718 5717 5716 5714 5713 5711 5710 5708 5707 5706 5705 5704 5703 5703 5702 5702 5702 5702 5702 5702 5702 5702 5702 5702 5702 5701 5701 5701 5701 5701 5701 5701 5700 5700 5700